Regional Weather Roundup
Issued by NWS

Home | Current Version | Previous Version | Text Only | Print | Product List | Glossary On
Versions: 1 2 3 4 5 6 7 8 9 10 11 12 13 14 15 16 17 18 19 20 21 22 23 24 25 26 27 28 29 30 31 32 33 34 35 36 37 38 39 40 41 42 43 44 45 46 47 48 49 50
000
ASUS43 KLMK 211710
RWRKY
KENTUCKY REGIONAL WEATHER ROUNDUP
NATIONAL WEATHER SERVICE LOUISVILLE KY
100 PM EDT FRI JUL 21 2017

NOTE "FAIR" INDICATES FEW OR NO CLOUDS BELOW 12,000 FEET
WITH NO SIGNIFICANT WEATHER AND/OR OBSTRUCTIONS TO VISIBILITY.

KYZ001>023-026-027-061>063-070>075-211800-
WESTERN AND SOUTH CENTRAL KENTUCKY

CITY           SKY/WX    TMP DP  RH WIND       PRES   REMARKS
PADUCAH        SUNNY     94  76  55 SW5       30.00F HX 106
HENDERSON      SUNNY     92  78  63 S7        30.01F HX 107
OWENSBORO      MOSUNNY   92  79  65 S7        30.02S HX 108
HOPKINSVILLE   SUNNY     91  76  62 W9        30.03F HX 102
BOWLING GREEN  MOSUNNY   91  75  59 S8        30.04F HX 101
GLASGOW        PTSUNNY   92  72  52 W6        30.05F HX 100
$$

KYZ024-025-028>034-038-045-046-053-211800-
NORTH CENTRAL KENTUCKY

CITY           SKY/WX    TMP DP  RH WIND       PRES   REMARKS
LOUISVILLE/SDF CLOUDY    92  74  55 SE8       30.01F HX 101
LOUISVILLE/LOU MOSUNNY   92  73  53 VRB3      30.02F HX 100
FORT KNOX      MOSUNNY   88  76  68 CALM      30.03F HX  99
$$

KYZ035>037-039>044-047>052-055>060-089>105-211800-
NORTHEAST KENTUCKY

CITY           SKY/WX    TMP DP  RH WIND       PRES   REMARKS
LEXINGTON      MOSUNNY   88  73  61 S9        30.06F HAZE    HX  95
COVINGTON      PTSUNNY   80  75  84 S9        30.04S
FRANKFORT      MOSUNNY   88  74  63 SW9       30.04F HX  96
$$

KYZ054-064>069-076>088-106>120-211800-
SOUTHEAST KENTUCKY

CITY           SKY/WX    TMP DP  RH WIND       PRES   REMARKS
JACKSON        CLOUDY    85  74  69 CALM      30.11F HX  92
LONDON         CLOUDY    90  70  51 VRB3      30.10F HX  95
SOMERSET       MOSUNNY   88  70  55 W3        30.09F HX  92
MIDDLESBORO    MOSUNNY   87  75  68 E6        30.10F HX  96
MONTICELLO     MOSUNNY   88  76  67 N9        30.10F HX  99
$$





USA.gov is the U.S. government's official web portal to all federal, state and local government web resources and services.